TimeAKST,TemperatureF,Dew PointF,Humidity,Sea Level PressureIn,VisibilityMPH,Wind Direction,Wind SpeedMPH,Gust SpeedMPH,PrecipitationIn,Events,Conditions,WindDirDegrees,DateUTC
12:01 AM,9.0,3.9,80,30.01,10.0,East,11.5,-,N/A,,Clear,100,2013-01-10 09:01:00
1:01 AM,9.0,3.9,80,29.99,10.0,East,4.6,-,N/A,,Clear,90,2013-01-10 10:01:00
2:01 AM,10.0,3.9,76,29.97,10.0,East,12.7,19.6,N/A,,Mostly Cloudy,90,2013-01-10 11:01:00
4:01 AM,12.9,7.0,77,29.95,7.0,East,16.1,25.3,0.00,Snow,Light Snow,80,2013-01-10 13:01:00
4:38 AM,14.0,8.6,79,29.81,5.0,East,15.0,26.5,0.00,Snow,Light Snow,80,2013-01-10 13:38:00
4:48 AM,12.2,8.6,85,29.80,6.0,East,16.1,21.9,0.00,Snow,Light Snow,80,2013-01-10 13:48:00
5:01 AM,12.2,8.6,85,29.80,6.0,East,13.8,21.9,0.00,Snow,Light Snow,80,2013-01-10 14:01:00
5:09 AM,14.0,9.0,80,29.94,5.0,East,10.4,25.3,0.00,Snow,Light Snow,80,2013-01-10 14:09:00
5:49 AM,14.0,10.4,86,29.80,7.0,ENE,9.2,-,0.00,Snow,Light Snow,70,2013-01-10 14:49:00
6:01 AM,14.0,10.4,86,29.80,5.0,ENE,12.7,18.4,0.00,Snow,Light Snow,70,2013-01-10 15:01:00
7:01 AM,15.1,10.0,80,29.94,5.0,ENE,8.1,-,0.00,Snow,Light Snow,70,2013-01-10 16:01:00
7:16 AM,15.8,10.4,79,29.80,7.0,ENE,8.1,25.3,0.00,Snow,Light Snow,70,2013-01-10 16:16:00
8:01 AM,15.1,10.0,80,29.94,9.0,East,9.2,18.4,0.00,Snow,Light Snow,90,2013-01-10 17:01:00
8:47 AM,15.8,10.4,79,29.81,6.0,East,11.5,18.4,0.00,Snow,Light Snow,80,2013-01-10 17:47:00
9:01 AM,14.0,10.0,84,29.95,6.0,East,13.8,23.0,0.00,Snow,Light Snow,80,2013-01-10 18:01:00
10:01 AM,15.1,10.9,84,29.96,4.0,East,17.3,24.2,0.00,Snow,Light Snow,80,2013-01-10 19:01:00
11:01 AM,15.1,10.9,84,29.97,4.0,East,12.7,19.6,0.00,Snow,Light Snow,80,2013-01-10 20:01:00
11:34 AM,15.8,10.4,79,29.84,2.0,East,16.1,23.0,0.00,Snow,Light Snow,90,2013-01-10 20:34:00
11:53 AM,15.8,10.4,79,29.85,3.0,East,9.2,16.1,0.00,Snow,Light Snow,90,2013-01-10 20:53:00
12:01 PM,15.1,10.9,84,29.99,6.0,East,9.2,19.6,0.00,Snow,Light Snow,80,2013-01-10 21:01:00
12:20 PM,15.8,10.4,79,29.85,4.0,East,11.5,-,0.00,Snow,Light Snow,90,2013-01-10 21:20:00
12:54 PM,15.8,10.4,79,29.85,3.0,East,15.0,21.9,0.00,Snow,Light Snow,90,2013-01-10 21:54:00
1:01 PM,15.1,10.9,84,29.99,3.0,East,15.0,21.9,0.00,Snow,Light Snow,90,2013-01-10 22:01:00
1:20 PM,15.8,10.4,79,29.85,7.0,East,16.1,21.9,0.00,Snow,Light Snow,80,2013-01-10 22:20:00
2:01 PM,15.1,10.0,80,29.99,9.0,East,16.1,21.9,0.00,Snow,Light Snow,100,2013-01-10 23:01:00
3:01 PM,15.8,10.4,79,29.89,8.0,East,10.4,18.4,0.00,Snow,Light Snow,90,2013-01-11 00:01:00
4:01 PM,15.1,10.9,84,30.03,9.0,East,11.5,18.4,0.00,Snow,Light Snow,90,2013-01-11 01:01:00
5:01 PM,14.0,10.0,84,30.03,9.0,East,15.0,23.0,0.00,Snow,Light Snow,90,2013-01-11 02:01:00
6:01 PM,15.1,10.9,84,30.04,9.0,East,13.8,23.0,0.00,Snow,Light Snow,90,2013-01-11 03:01:00
6:45 PM,15.8,10.4,79,29.90,9.0,East,9.2,-,0.00,Snow,Light Snow,90,2013-01-11 03:45:00
7:01 PM,15.1,10.9,84,30.03,9.0,East,16.1,21.9,0.00,Snow,Light Snow,80,2013-01-11 04:01:00
8:01 PM,14.0,12.2,93,29.90,9.0,East,10.4,17.3,0.00,Snow,Light Snow,90,2013-01-11 05:01:00
9:01 PM,15.1,12.9,91,30.01,9.0,ENE,16.1,23.0,0.00,Snow,Light Snow,70,2013-01-11 06:01:00
10:01 PM,14.0,10.9,88,30.01,9.0,East,12.7,19.6,0.00,Snow,Light Snow,80,2013-01-11 07:01:00
10:16 PM,14.0,10.4,86,29.87,8.0,East,10.4,17.3,0.00,Snow,Light Snow,80,2013-01-11 07:16:00
10:38 PM,14.0,10.4,86,29.86,9.0,East,16.1,20.7,0.00,Snow,Light Snow,90,2013-01-11 07:38:00
11:01 PM,14.0,10.9,88,29.99,9.0,East,17.3,23.0,0.00,Snow,Light Snow,90,2013-01-11 08:01:00
11:18 PM,14.0,10.4,86,29.85,9.0,East,17.3,24.2,0.00,Snow,Light Snow,80,2013-01-11 08:18:00